Flag for Canada Weather past 2 weeks in Burlington, Ontario, Canada

Now
66 °F

Mild.


Feels Like: 66 °F
Forecast: 70 / 79 °F
Wind: 10 mph from West

Location: Burlington Piers

Current Time: Aug 3, 2015 at 7:02:03 AM

Latest Report: Aug 3, 2015 at 6:00 AM


Visibility: N/A

Pressure: 29.67 "Hg

Humidity: 84%

Dew point: 61 °F

Location of BurlingtonLocation

Historic Weather in Burlington — Graph

°F

Burlington temperature yesterday

Maximum temperature yesterday: 82 °F (at 5:00 PM)
Minimum temperature yesterday: 64 °F (at 7:00 PM)
Average temperature yesterday: 73 °F

Past Weeks' High & Low Weather Summary

 TemperatureHumidityPressure
High89 °F (Jul 29, 5:00 PM)87% (Jul 20, 3:00 AM)30.03 "Hg (Jul 20, 3:00 AM)
Low62 °F (Jul 22, 7:00 AM)28% (Jul 24, 2:00 PM)29.61 "Hg (Aug 2, 10:00 PM)
Average75 °F60%29.86 "Hg
* Reported Jul 19 5:00 AM — Aug 3 5:00 AM, Burlington, Weather by CustomWeather, © 2015

Note: Actual official high and low records may vary slightly from our data, if they occured in-between our weather recording intervals... More about our weather records

Advertising

Burlington weather history for previous 24 hours

 ConditionsComfort  
Time TempWeatherWind HumidityBarometerVisibility
5:00 AM
Mon, Aug 3
66 °FMild.12 mph83%29.68 "HgN/A
4:00 AM66 °FMild.9 mph81%29.63 "HgN/A
3:00 AM65 °FMild.13 mph83%29.63 "HgN/A
2:00 AM66 °FMild.9 mph84%29.66 "HgN/A
10:00 PM
Sun, Aug 2
81 °FWarm.14 mph55%29.61 "HgN/A
9:00 PM81 °FWarm.12 mph58%29.62 "HgN/A
8:00 PM69 °FMild.13 mph62%29.68 "HgN/A
7:00 PM64 °FMild.12 mph70%29.74 "HgN/A
6:00 PM82 °FWarm.12 mph51%29.71 "HgN/A
5:00 PM82 °FWarm.13 mph45%29.72 "HgN/A
4:00 PM82 °FWarm.12 mph41%29.74 "HgN/A
3:00 PM80 °FWarm.16 mph53%29.75 "HgN/A
2:00 PM81 °FWarm.14 mph41%29.77 "HgN/A
1:00 PM80 °FPleasantly warm.12 mph36%29.81 "HgN/A
12:00 PM78 °FPleasantly warm.9 mph39%29.82 "HgN/A
11:00 AM75 °FMild.6 mph53%29.82 "HgN/A
10:00 AM71 °FMild.7 mph68%29.85 "HgN/A
9:00 AM68 °FMild.8 mph74%29.84 "HgN/A
8:00 AM66 °FMild.7 mph77%29.84 "HgN/A
7:00 AM66 °FMild.8 mph78%29.83 "HgN/A
Weather by CustomWeather, © 2015

See weather overviewHow to use our weather pages